Whiteman AFB, MO

12:06 AM CST on January 21, 2018 (GMT -0600)
Whiteman Air Force Base

Weather History for KSZL - October, 2010

Change the Weather History Date:

Monday, October 18, 2010

  Actual Average Record
Temperature  
Mean Temperature 60 °F -  
Max Temperature 70 °F 64 °F 82 °F (2005)
Min Temperature 49 °F 45 °F 33 °F (1999)
Degree Days  
Heating Degree Days 6    
Growing Degree Days 10 (Base 50)    
Moisture  
Dew Point 50 °F    
Average Humidity 75    
Maximum Humidity 96    
Minimum Humidity 49    
Precipitation  
Precipitation 0.08 in - - ()
Sea Level Pressure  
Sea Level Pressure 29.97 in    
Wind  
Wind Speed 6 mph (NNW)    
Max Wind Speed 15 mph    
Max Gust Speed -    
Visibility 10 miles    
Events Rain , Thunderstorm    
Averages and records for this station are not official NWS values.
T = Trace of Precipitation, MM = Missing Value Source: NWS Daily Summary

Daily Weather History Graph

Daily Weather History Graph

Search for Another Location

Airport or City:

Trip Planner

Search our weather history database for the weather conditions in past years. The results will help you decide how hot, cold, wet, or windy it might be!

Date:

Astronomy

Oct. 18, 2010 Rise Set
Actual Time 7:26 AM CDT 6:31 PM CDT
Civil Twilight 6:59 AM CDT 6:58 PM CDT
Nautical Twilight 6:28 AM CDT 7:29 PM CDT
Astronomical Twilight 5:57 AM CDT 8:00 PM CDT
Moon 4:14 PM CDT (10/18) 3:18 AM CDT (10/18)
Length of Visible Light 11h 58m
Length of Day
11h 05m
Waxing Gibbous, 83% of the Moon is Illuminated
Oct 18
Waxing Gibbous
Oct 22
Full
Oct 30
Last Quarter
Nov 5
New
Nov 13
First Quarter

Hourly Weather History & Observations

Time (CDT) Temp. Dew Point Humidity Pressure Visibility Wind Dir Wind Speed Gust Speed Precip Events Conditions
12:55 AM 56.7 °F 49.1 °F 76% 29.95 in 10.0 mi SSW 5.8 mph - N/A   Partly Cloudy
1:55 AM 57.2 °F 48.7 °F 73% 29.95 in 10.0 mi South 4.6 mph - N/A   Overcast
2:55 AM 55.6 °F 47.7 °F 75% 29.94 in 10.0 mi South 5.8 mph - N/A   Mostly Cloudy
3:55 AM 54.9 °F 46.6 °F 74% 29.94 in 10.0 mi SSW 3.5 mph - N/A   Partly Cloudy
4:55 AM 55.0 °F 46.8 °F 74% 29.95 in 10.0 mi Calm Calm - N/A   Clear
5:55 AM 53.4 °F 46.6 °F 78% 29.95 in 10.0 mi SSW 3.5 mph - N/A   Scattered Clouds
6:55 AM 52.9 °F 46.6 °F 79% 29.96 in 10.0 mi SSW 3.5 mph - N/A   Clear
7:55 AM 49.3 °F 45.9 °F 88% 29.96 in 10.0 mi South 5.8 mph - N/A   Clear
8:55 AM 55.8 °F 50.5 °F 83% 29.97 in 10.0 mi South 5.8 mph - N/A   Clear
9:55 AM 63.5 °F 52.5 °F 67% 29.96 in 10.0 mi SSW 10.4 mph - N/A   Clear
10:55 AM 67.8 °F 53.4 °F 60% 29.97 in 10.0 mi Calm Calm - N/A   Clear
11:55 AM 68.9 °F 52.9 °F 57% 29.96 in 10.0 mi NW 8.1 mph - N/A   Clear
12:55 PM 69.8 °F 52.2 °F 53% 29.95 in 10.0 mi NNW 9.2 mph - N/A   Clear
1:55 PM 70.7 °F 50.9 °F 49% 29.96 in 10.0 mi North 11.5 mph - N/A   Partly Cloudy
2:31 PM 66.2 °F 50.0 °F 56% 29.96 in 10.0 mi North 10.4 mph - N/A Rain Light Rain Showers
2:55 PM 63.9 °F 49.6 °F 60% 29.95 in 7.0 mi NNE 5.8 mph - 0.00 in Rain , Thunderstorm Light Rain
3:09 PM 60.8 °F 51.8 °F 72% 29.92 in 10.0 mi NNE 10.4 mph - N/A   Mostly Cloudy
3:34 PM 60.8 °F 51.8 °F 72% 29.93 in 10.0 mi NNE 15.0 mph - N/A   Light Drizzle
3:55 PM 60.8 °F 50.4 °F 68% 29.94 in 10.0 mi NNE 12.7 mph - 0.01 in Thunderstorm Scattered Clouds
4:06 PM 59.0 °F 50.0 °F 72% 29.95 in 10.0 mi North 9.2 mph - N/A Thunderstorm Thunderstorm
4:21 PM 59.0 °F 50.0 °F 72% 29.96 in 10.0 mi North 8.1 mph - N/A Rain Light Rain
4:55 PM 55.9 °F 52.7 °F 89% 29.97 in 3.0 mi WSW 4.6 mph - 0.05 in Rain Rain
5:22 PM 57.2 °F 53.6 °F 88% 29.97 in 10.0 mi WSW 3.5 mph - N/A   Scattered Clouds
5:36 PM 57.2 °F 53.6 °F 88% 29.96 in 10.0 mi Calm Calm - N/A   Light Drizzle
5:55 PM 56.7 °F 54.3 °F 92% 29.96 in 10.0 mi Calm Calm - 0.02 in   Mostly Cloudy
6:33 PM 57.2 °F 55.4 °F 94% 29.98 in 10.0 mi WNW 3.5 mph - N/A   Light Drizzle
6:55 PM 56.3 °F 53.8 °F 91% 29.98 in 10.0 mi NNW 4.6 mph - 0.00 in   Light Drizzle
7:55 PM 55.2 °F 54.1 °F 96% 30.00 in 10.0 mi NNW 3.5 mph - N/A   Mostly Cloudy
8:55 PM 55.4 °F 51.1 °F 85% 30.01 in 10.0 mi NNE 5.8 mph - N/A   Overcast
9:55 PM 53.2 °F 43.9 °F 71% 30.01 in 10.0 mi NNE 11.5 mph - N/A   Scattered Clouds
10:55 PM 52.9 °F 42.1 °F 67% 30.03 in 10.0 mi NE 8.1 mph - N/A   Mostly Cloudy
11:55 PM 50.5 °F 40.6 °F 69% 30.04 in 10.0 mi NE 6.9 mph - N/A   Partly Cloudy